Погода в Карце

Россия / Республика Северная Осетия — Алания     42°55′17″N   44°17′45″E
темп.,
°C
ветер,
м/с
пор.,
м/с
влажн.,
%
обл.,
%
осадки,
мм/ч
давл.,
гПа
погр.,
м
7 мая, пт
пт700:00+8юз1168100 0.0 101317
03:00+7юз217161 0.0 101417
06:00+10юз116668 0.0 101425
09:00+14с216099 0.0 1016382
12:00+17с33543 0.0 10161033
15:00+16с325120 0.0 10161121
18:00+14с226636 0.0 1018195
21:00+10ююз217418 0.0 102014
8 мая, сб
сб800:00+9ююз22745 0.0 101915
03:00+9ююз22692 0.0 101916
06:00+10ююз11675 0.0 101824
09:00+15ссв325632 0.0 1015527
12:00+18ссв325579 0.0 1014938
15:00+19ссв3257100 0.0 10131045
18:00+16ссв227389 0.0 101389
21:00+12ююз22720 0.0 101321
9 мая, вс
вс900:00+12ююз325915 0.0 101132
03:00+12ююз2357100 0.0 101056
06:00+13юз226597 0.0 101060
09:00+16с326099 0.0 1010615
12:00+17ссв326550 0.0 1008642
15:00+16с3373100 0.4 10091090
18:00+5ссв3597100 6.8 1019630
21:00+4св2395100 9.4 1022640
10 мая, пн
пн1000:00+3ююв2397100 4.0 1024415
03:00+3ю2294100 8.3 1024483
06:00+3ююз3487100 1.1 1024240
09:00+6св226398 1.2 10211147
12:00+6св347192 0.6 10211093
15:00+8всв336877 1.5 10201163
18:00+6всв237977 0.4 1020528
21:00+3зсз139668 1.3 1023224
11 мая, вт
вт1100:00+2зсз019483 0.1 1022184
03:00+2юв118868 0.1 1021107
06:00+3ссв1288100 0.1 1021225
09:00+4св228797 0.3 1020596
12:00+6св2280100 0.1 1019689
15:00+8св3376100 0.2 1018852
18:00+8ссв238167 0.0 1017459
21:00+5юз119130 0.1 101943